TimeEST,TemperatureF,Dew PointF,Humidity,Sea Level PressureIn,VisibilityMPH,Wind Direction,Wind SpeedMPH,Gust SpeedMPH,PrecipitationIn,Events,Conditions,WindDirDegrees,DateUTC
12:13 AM,16.2,13.3,88,30.07,10.0,WNW,4.6,-,N/A,,Overcast,300,2013-03-03 05:13:00
12:33 AM,18.9,14.5,83,30.07,10.0,NW,4.6,-,N/A,,Overcast,310,2013-03-03 05:33:00
12:53 AM,18.5,14.0,83,30.07,10.0,WNW,4.6,-,N/A,,Overcast,300,2013-03-03 05:53:00
1:13 AM,18.9,14.4,83,30.07,10.0,WNW,4.6,-,N/A,,Mostly Cloudy,300,2013-03-03 06:13:00
1:33 AM,17.4,13.8,86,30.06,10.0,Calm,Calm,-,N/A,,Scattered Clouds,0,2013-03-03 06:33:00
1:53 AM,16.2,12.6,86,30.06,10.0,Calm,Calm,-,N/A,,Scattered Clouds,0,2013-03-03 06:53:00
2:13 AM,15.6,12.6,88,30.06,10.0,WNW,3.5,-,N/A,,Clear,300,2013-03-03 07:13:00
2:33 AM,17.2,14.0,87,30.06,10.0,WNW,3.5,-,N/A,,Scattered Clouds,300,2013-03-03 07:33:00
2:53 AM,16.3,12.6,85,30.05,10.0,Calm,Calm,-,N/A,,Overcast,0,2013-03-03 07:53:00
3:13 AM,15.8,13.1,89,30.04,10.0,Calm,Calm,-,N/A,,Overcast,0,2013-03-03 08:13:00
3:33 AM,18.5,14.9,86,30.04,10.0,Calm,Calm,-,N/A,,Overcast,0,2013-03-03 08:33:00
3:53 AM,20.3,15.8,83,30.04,10.0,NW,3.5,-,N/A,,Overcast,310,2013-03-03 08:53:00
4:13 AM,20.3,15.8,83,30.04,10.0,Calm,Calm,-,N/A,,Overcast,0,2013-03-03 09:13:00
4:33 AM,20.3,15.8,83,30.04,10.0,Calm,Calm,-,N/A,,Overcast,0,2013-03-03 09:33:00
4:53 AM,20.3,15.8,83,30.04,10.0,NNW,3.5,-,N/A,,Overcast,330,2013-03-03 09:53:00
5:13 AM,20.5,15.6,81,30.04,10.0,NNW,4.6,-,N/A,,Overcast,330,2013-03-03 10:13:00
5:33 AM,21.2,16.0,80,30.04,10.0,WNW,4.6,-,N/A,,Overcast,300,2013-03-03 10:33:00
5:53 AM,21.2,15.3,78,30.04,10.0,NW,6.9,-,N/A,,Overcast,320,2013-03-03 10:53:00
6:13 AM,21.2,15.1,77,30.04,10.0,NW,6.9,-,N/A,,Overcast,310,2013-03-03 11:13:00
6:33 AM,20.8,14.9,78,30.04,10.0,North,6.9,-,N/A,,Overcast,360,2013-03-03 11:33:00
7:13 AM,18.0,13.3,82,30.05,10.0,North,3.5,-,N/A,,Scattered Clouds,350,2013-03-03 12:13:00
7:53 AM,18.9,13.1,78,30.06,10.0,NW,5.8,-,N/A,,Clear,320,2013-03-03 12:53:00
8:13 AM,19.2,13.1,77,30.06,10.0,NW,3.5,-,N/A,,Clear,310,2013-03-03 13:13:00
8:33 AM,20.8,13.5,73,30.06,10.0,West,3.5,-,N/A,,Clear,280,2013-03-03 13:33:00
8:53 AM,21.2,13.1,71,30.06,10.0,NNW,5.8,-,N/A,,Clear,330,2013-03-03 13:53:00
9:13 AM,22.3,13.6,69,30.06,10.0,NNW,6.9,-,N/A,,Clear,330,2013-03-03 14:13:00
9:33 AM,23.2,13.8,67,30.05,10.0,NNW,4.6,-,N/A,,Clear,340,2013-03-03 14:33:00
9:53 AM,23.9,13.8,65,30.05,10.0,NNW,8.1,-,N/A,,Clear,340,2013-03-03 14:53:00
10:13 AM,24.8,14.0,64,30.05,10.0,NNW,8.1,16.1,N/A,,Clear,340,2013-03-03 15:13:00
10:33 AM,26.1,14.9,63,30.05,10.0,NW,12.7,-,N/A,,Mostly Cloudy,320,2013-03-03 15:33:00
10:53 AM,25.7,14.2,62,30.04,10.0,NW,10.4,-,N/A,,Mostly Cloudy,320,2013-03-03 15:53:00
11:13 AM,26.4,14.5,61,30.04,10.0,NW,9.2,16.1,N/A,,Scattered Clouds,320,2013-03-03 16:13:00
11:33 AM,27.3,15.4,61,30.04,10.0,NW,11.5,-,N/A,,Scattered Clouds,320,2013-03-03 16:33:00
11:53 AM,27.3,14.4,58,30.03,10.0,NW,9.2,16.1,N/A,,Scattered Clouds,320,2013-03-03 16:53:00
12:13 PM,28.6,14.9,57,30.03,10.0,WNW,12.7,17.3,N/A,,Scattered Clouds,290,2013-03-03 17:13:00
12:33 PM,28.6,14.2,55,30.03,10.0,NW,10.4,-,N/A,,Scattered Clouds,310,2013-03-03 17:33:00
12:53 PM,28.9,14.2,54,30.02,10.0,NW,10.4,-,N/A,,Clear,320,2013-03-03 17:53:00
1:13 PM,29.1,14.9,55,30.01,10.0,WNW,10.4,-,N/A,,Clear,300,2013-03-03 18:13:00
1:33 PM,30.6,15.6,54,30.00,10.0,NW,9.2,-,N/A,,Scattered Clouds,310,2013-03-03 18:33:00
1:53 PM,30.9,15.6,53,30.00,10.0,WNW,5.8,-,N/A,,Scattered Clouds,300,2013-03-03 18:53:00
2:13 PM,31.6,16.2,53,29.99,10.0,WNW,9.2,-,N/A,,Mostly Cloudy,300,2013-03-03 19:13:00
2:53 PM,31.8,16.0,52,29.99,10.0,WNW,8.1,-,N/A,,Scattered Clouds,300,2013-03-03 19:53:00
3:13 PM,32.0,15.6,51,29.99,10.0,WNW,10.4,-,N/A,,Scattered Clouds,300,2013-03-03 20:13:00
3:33 PM,32.0,14.7,49,29.98,10.0,West,9.2,-,N/A,,Scattered Clouds,280,2013-03-03 20:33:00
3:53 PM,32.0,14.5,49,29.98,10.0,West,11.5,-,N/A,,Clear,280,2013-03-03 20:53:00
4:13 PM,32.0,14.5,49,29.98,10.0,WNW,5.8,-,N/A,,Clear,290,2013-03-03 21:13:00
4:33 PM,31.8,15.4,51,29.98,10.0,NW,9.2,-,N/A,,Scattered Clouds,310,2013-03-03 21:33:00
4:53 PM,31.8,15.8,52,29.99,10.0,WNW,6.9,-,N/A,,Clear,290,2013-03-03 21:53:00
5:13 PM,32.0,15.1,50,29.99,10.0,NW,9.2,-,N/A,,Clear,310,2013-03-03 22:13:00
5:33 PM,31.5,15.1,51,29.99,10.0,WNW,8.1,-,N/A,,Clear,300,2013-03-03 22:33:00
6:13 PM,29.8,14.7,53,30.00,10.0,WNW,8.1,-,N/A,,Clear,300,2013-03-03 23:13:00
6:33 PM,28.9,14.7,55,30.00,10.0,WNW,6.9,-,N/A,,Clear,300,2013-03-03 23:33:00
6:53 PM,27.9,14.9,58,30.00,10.0,NW,4.6,-,N/A,,Clear,310,2013-03-03 23:53:00
7:33 PM,27.5,14.7,59,30.02,10.0,NNW,5.8,-,N/A,,Scattered Clouds,330,2013-03-04 00:33:00
7:53 PM,26.6,14.9,61,30.02,10.0,NW,4.6,-,N/A,,Clear,310,2013-03-04 00:53:00
8:13 PM,25.3,14.9,65,30.03,10.0,Calm,Calm,-,N/A,,Clear,0,2013-03-04 01:13:00
8:33 PM,24.3,15.3,69,30.03,10.0,North,3.5,-,N/A,,Clear,10,2013-03-04 01:33:00
8:53 PM,23.7,15.3,70,30.04,10.0,North,6.9,-,N/A,,Clear,10,2013-03-04 01:53:00
9:13 PM,23.5,15.8,72,30.04,10.0,North,4.6,-,N/A,,Clear,360,2013-03-04 02:13:00
9:33 PM,23.9,15.8,71,30.04,10.0,North,4.6,-,N/A,,Clear,360,2013-03-04 02:33:00
10:13 PM,23.5,14.9,70,30.04,10.0,North,6.9,-,N/A,,Clear,360,2013-03-04 03:13:00
10:33 PM,22.8,14.7,71,30.04,10.0,North,5.8,-,N/A,,Clear,360,2013-03-04 03:33:00
10:53 PM,22.8,14.9,72,30.05,10.0,North,6.9,-,N/A,,Clear,360,2013-03-04 03:53:00
11:13 PM,21.7,14.4,73,30.05,10.0,North,5.8,-,N/A,,Clear,350,2013-03-04 04:13:00
11:33 PM,21.2,14.0,74,30.05,10.0,North,6.9,-,N/A,,Clear,360,2013-03-04 04:33:00
11:53 PM,20.8,13.8,74,30.05,10.0,North,8.1,-,N/A,,Clear,360,2013-03-04 04:53:00